Temp
14 14 14 15 15 15 15 14 14 14 14 13 13 13 13 12 12 11 11 11 11 11 11 10 10 10 10 10 10 10 10 9 9 9 9 9 9 9 9 9 10 10
14 15 15 15 15 15 15 15 14 14 13 13 13 13 12 12 11 11 11 11 11 11 10 10 10 10 10 10 10 10 10 9 9 9 9 9 9 9 9 9 9 9
14 15 15 16 16 15 15 14 13 13 13 13 12 12 12 11 11 11 11 11 11 10 10 10 10 10 10 10 10 10 10 9 9 9 9 9 9 9 9 9 9 9
15 16 16 16 15 15 15 14 13 13 13 12 12 12 11 11 11 11 11 11 10 10 10 10 10 10 10 9 10 10 9 9 9 9 9 9 9 9 9 9 9 9
14 15 15 15 15 15 14 14 13 13 13 12 12 11 11 11 11 11 11 11 10 10 10 10 10 10 9 9 9 9 9 9 9 9 9 9 9 9 9 9 9 9
14 15 15 15 15 15 14 13 13 13 12 12 12 12 12 11 11 11 11 11 11 10 10 10 10 10 10 10 9 10 10 10 9 9 9 9 9 9 9 9 9 9
14 15 15 14 14 14 14 13 13 13 12 12 12 12 11 11 11 11 11 11 11 10 10 10 10 10 10 10 10 10 10 9 9 10 10 9 9 9 9 9 9 9
14 15 14 14 14 14 13 13 13 12 12 12 12 12 12 12 12 11 11 11 11 11 11 10 10 10 10 10 10 9 9 9 10 10 9 9 9 9 9 9 9 9
14 14 14 14 14 13 13 13 12 12 12 12 12 12 12 12 12 11 11 11 11 11 11 10 10 10 10 10 10 9 10 9 10 9 9 9 9 9 9 9 9 9
14 14 14 14 13 13 13 12 12 12 12 12 12 12 12 12 11 11 11 11 11 11 11 10 10 10 10 10 10 10 10 10 9 9 9 9 9 9 9 9 9 9
14 13 13 13 13 13 12 12 12 12 12 12 12 12 11 11 11 11 11 11 11 11 11 11 10 10 10 10 10 10 10 10 10 9 9 9 9 9 9 9 9 9
13 13 13 13 13 12 12 12 12 12 12 12 12 12 11 11 11 11 11 11 11 11 11 11 10 10 10 10 10 10 10 10 9 9 9 9 9 9 9 9 9 8
13 13 13 13 12 12 12 12 12 12 12 12 12 11 11 11 11 11 11 11 11 11 11 11 11 10 10 10 10 10 10 9 9 9 9 9 9 9 8 8 8 8
13 13 13 13 12 12 12 12 12 12 12 12 11 11 11 11 11 11 11 11 11 11 11 11 10 10 10 10 10 10 9 9 9 9 9 9 9 8 8 8 8 8
13 12 12 12 12 12 12 12 12 12 12 11 11 11 11 11 11 11 11 11 11 11 11 10 10 10 10 10 10 10 9 9 9 9 9 9 9 8 8 8 8 8
13 12 13 12 12 12 12 12 12 11 11 11 11 11 11 11 11 11 11 11 11 11 10 10 10 10 10 9 10 10 10 9 9 9 9 9 9 9 9 8 8 8
13 12 12 12 12 12 12 12 12 11 11 11 11 11 11 11 11 11 11 11 11 11 10 10 10 10 9 9 9 9 9 9 9 9 9 9 9 9 9 9 9 8
12 12 12 12 12 12 12 11 11 11 11 11 11 11 10 10 10 11 11 11 11 10 10 10 10 9 9 8 8 8 9 9 9 9 9 9 9 9 9 9 9 8
12 12 12 12 11 11 11 11 11 11 11 11 10 10 10 10 10 10 10 10 10 10 10 10 9 9 8 8 8 8 8 9 10 9 9 10 9 9 9 9 9 9
12 12 11 11 10 10 10 10 10 11 11 11 10 10 10 10 10 10 10 10 10 10 10 10 9 9 8 8 8 8 8 9 10 9 9 9 9 9 9 9 9 9
11 11 10 9 9 9 10 10 10 11 11 10 10 10 10 10 10 10 10 10 10 10 10 10 9 8 8 8 8 8 7 8 9 9 9 9 9 9 9 9 8 8
11 11 10 9 10 11 10 10 10 10 10 10 9 9 9 9 9 9 9 9 10 10 10 10 9 8 8 8 8 7 7 8 9 9 9 9 9 9 9 8 8 8
11 11 10 10 12 11 10 9 9 9 9 9 9 9 9 9 9 9 9 9 9 9 10 9 8 8 8 8 7 7 7 8 9 9 9 9 9 9 9 8 8 8
11 11 11 11 12 11 9 9 9 9 9 9 9 8 8 8 8 9 9 9 9 9 9 9 8 8 8 7 7 7 7 8 10 10 10 9 9 9 9 9 8 7
11 11 11 12 11 9 8 8 8 9 9 9 8 8 8 8 8 8 8 9 9 9 9 9 8 8 7 7 7 7 7 8 10 10 10 10 9 9 9 9 8 7
11 11 12 11 10 9 8 8 9 9 9 9 8 8 7 7 8 8 8 8 9 9 8 8 8 7 7 7 7 7 7 8 9 10 10 10 10 9 9 9 9 8
Height
826 827 829 831 832 832 833 835 837 839 841 842 842 844 845 846 847 848 849 850 851 851 852 853 854 854 855 855 856 856 857 857 858 859 860 860 860 860 860 860 861 861
824 825 827 828 829 831 833 834 836 837 840 841 842 844 845 846 847 848 850 850 851 852 852 854 854 855 855 855 856 857 857 858 859 860 861 861 861 861 861 861 862 862
821 822 824 825 826 829 832 833 835 837 839 840 841 843 845 846 848 849 850 851 851 852 853 854 855 855 856 856 857 857 858 859 860 861 861 861 862 862 862 862 863 864
818 819 822 823 825 828 830 832 835 836 838 839 841 843 845 846 848 849 850 851 852 853 853 855 855 855 856 856 857 858 859 860 860 861 861 862 862 862 863 863 864 865
816 818 820 822 824 826 828 831 834 835 837 839 841 843 844 846 847 848 850 851 852 853 854 855 855 855 856 857 858 859 859 860 861 861 862 862 862 863 864 864 865 865
815 817 819 821 823 825 828 831 833 835 837 838 840 843 844 845 847 848 850 851 852 853 854 854 855 856 857 858 858 859 860 861 861 862 862 862 863 864 864 865 865 866
814 816 818 820 822 825 827 830 833 834 836 838 840 842 843 845 847 848 849 851 852 853 854 855 855 856 857 858 859 859 860 861 861 862 862 863 863 864 865 866 866 866
812 815 817 819 822 825 827 829 831 833 835 837 839 841 843 844 846 847 849 851 852 853 854 855 856 856 857 858 859 860 860 861 862 862 863 863 864 865 865 866 866 866
811 813 815 818 821 824 826 828 830 832 834 836 838 840 842 844 845 847 849 850 851 852 853 855 855 856 857 858 859 860 860 861 862 862 863 864 864 865 866 866 867 867
810 811 814 817 820 823 825 827 829 831 833 835 837 839 841 843 844 846 848 849 851 852 853 854 855 856 857 858 859 860 860 861 862 863 863 864 865 866 866 867 867 868
807 810 813 816 818 821 824 825 827 830 832 834 836 838 840 842 844 846 847 849 850 852 852 853 854 856 857 858 859 860 860 861 862 863 864 864 865 866 867 867 868 868
806 809 812 814 817 820 822 824 826 829 831 833 835 837 839 841 843 845 846 848 850 851 852 852 854 855 857 858 859 859 860 861 862 863 864 865 865 866 867 868 868 869
804 808 810 813 816 818 820 823 825 828 830 832 834 836 838 840 842 843 845 847 849 850 851 852 853 855 856 857 858 859 860 861 862 863 864 865 866 866 867 868 868 869
803 807 809 812 815 817 820 822 824 827 829 831 833 835 837 839 840 843 844 846 848 849 850 851 852 854 856 857 858 859 859 860 861 863 864 864 866 866 867 868 868 869
802 806 808 811 814 816 819 821 824 826 828 830 832 834 836 838 840 842 844 845 847 848 849 850 852 854 855 856 857 858 859 860 861 862 863 864 865 866 867 868 868 869
802 805 807 810 813 815 818 820 823 826 828 830 832 834 836 838 839 841 843 844 846 847 848 849 851 852 853 855 856 857 858 859 860 862 863 864 865 866 867 867 868 868
801 804 807 809 812 814 817 820 822 825 827 830 832 834 835 837 839 840 842 843 844 845 847 849 850 851 852 853 855 856 857 859 860 861 862 864 864 865 866 867 867 868
801 804 806 808 810 812 815 818 821 824 827 829 831 833 835 836 838 839 841 842 843 844 846 848 849 850 851 853 854 855 856 858 859 861 862 863 864 864 865 866 866 867
800 803 806 808 809 812 816 818 821 824 826 829 830 832 834 835 837 838 840 841 841 843 845 847 848 849 850 852 853 854 856 857 859 860 861 862 863 864 865 865 865 866
800 803 806 809 811 816 820 823 826 827 827 829 830 832 833 835 836 838 839 840 840 842 844 846 847 847 849 851 852 854 855 856 858 859 860 862 863 863 864 864 865 865
798 801 804 807 811 817 821 824 826 828 828 829 830 832 834 835 836 837 838 839 840 841 843 845 845 846 848 850 852 853 855 855 857 859 860 861 862 863 863 863 864 864
795 798 802 805 809 813 816 818 821 825 826 828 829 832 834 835 836 837 837 838 839 841 842 843 844 845 847 849 851 853 854 855 857 858 859 860 861 862 862 862 863 863
793 796 799 802 805 807 810 814 817 821 824 826 828 831 833 834 836 836 837 838 839 840 841 842 843 844 846 848 850 852 853 855 856 857 858 859 860 861 861 861 862 862
791 793 796 799 801 803 807 810 812 815 820 823 826 829 831 833 835 836 837 838 839 840 841 842 842 843 845 847 849 850 852 853 855 855 856 858 859 859 860 860 860 860
789 792 794 797 799 801 805 808 810 812 817 821 824 827 830 833 834 836 837 838 838 839 840 841 842 842 844 846 847 849 851 852 853 854 855 856 857 858 859 859 859 859
787 790 793 795 798 800 803 806 807 810 814 819 823 826 829 831 833 835 836 837 838 839 839 840 841 841 843 845 846 848 849 851 852 853 853 855 856 856 857 858 858 858
Wind_Speed
20 24 22 18 17 16 16 16 14 12 11 11 11 11 11 11 11 11 11 11 11 12 12 12 12 12 12 13 13 13 14 14 14 13 14 14 14 15 14 14 13 13
21 24 23 21 20 19 18 17 14 12 11 11 12 12 12 13 12 12 12 12 12 12 12 12 12 12 12 13 13 13 13 13 13 13 13 14 14 14 14 14 13 12
23 27 25 23 22 20 19 16 13 12 12 12 13 13 14 14 13 13 13 13 13 12 12 12 12 12 13 13 13 12 12 12 12 12 13 13 13 13 13 13 12 12
24 29 26 23 23 22 21 17 14 14 13 14 14 14 15 14 14 14 14 13 13 13 12 12 12 13 13 13 12 12 12 12 12 12 12 13 12 13 13 12 12 11
24 29 26 25 25 23 20 18 15 15 15 15 15 15 15 15 15 15 14 14 13 13 12 12 13 13 12 12 12 12 12 12 12 12 12 13 12 12 12 12 12 11
25 28 27 25 25 23 20 18 16 16 16 16 16 16 16 16 15 15 15 14 14 13 13 13 13 12 12 12 11 11 11 12 12 12 12 13 12 12 11 11 12 11
28 29 26 26 25 23 21 19 17 17 17 17 16 16 16 16 16 15 15 15 14 14 13 13 13 13 12 12 11 12 12 12 12 12 12 13 12 12 11 11 11 11
31 29 27 28 26 25 23 20 18 17 17 17 17 16 17 16 16 16 15 15 15 14 13 13 13 13 12 12 12 13 13 12 12 12 12 12 12 12 11 10 11 11
32 29 29 30 28 26 23 20 19 18 18 18 17 17 17 16 16 16 16 15 15 14 14 13 13 13 12 13 13 13 13 12 12 12 12 12 12 11 11 10 10 9
32 30 30 31 28 25 23 20 19 19 18 18 17 17 17 17 17 16 16 16 15 15 15 14 13 13 13 13 13 13 13 13 13 12 12 11 11 11 10 10 9 9
31 31 32 31 28 24 22 21 20 19 18 18 18 17 17 17 17 17 16 16 15 16 15 14 14 14 14 14 13 13 13 13 12 12 12 11 11 10 10 9 8 8
31 32 32 30 28 24 22 21 20 19 18 18 18 18 18 17 17 17 16 16 16 16 15 15 15 14 14 14 13 13 13 13 12 12 11 11 11 10 9 8 8 8
32 32 31 29 25 23 22 21 19 19 18 18 18 18 18 18 18 17 16 16 16 16 16 15 15 14 14 14 14 13 13 13 12 12 11 11 10 9 9 8 8 8
32 31 30 27 23 21 22 20 19 18 18 18 18 18 18 18 18 17 16 16 16 16 16 15 15 14 14 14 14 13 13 13 12 11 11 10 10 9 8 8 8 8
29 26 25 24 21 20 20 19 18 18 18 18 18 18 18 17 17 17 17 16 16 16 16 16 15 14 14 15 14 14 13 13 12 11 11 10 9 9 8 7 7 7
24 22 22 21 20 20 20 19 18 18 18 18 18 17 17 17 17 17 17 17 17 17 16 16 14 13 15 17 15 14 13 12 12 11 10 10 9 8 8 7 7 6
21 21 21 20 20 20 20 19 19 18 18 18 17 17 16 17 17 17 17 17 17 17 16 15 14 14 18 20 18 15 13 12 12 11 10 9 9 8 7 7 6 6
21 22 21 21 21 21 21 21 19 18 18 18 17 17 16 16 16 17 17 17 17 17 16 15 14 15 19 20 19 18 15 12 11 11 10 9 8 8 7 7 6 6
23 23 20 20 20 19 19 19 18 19 18 17 17 16 16 16 17 17 17 17 17 17 17 16 15 17 19 18 18 18 16 12 10 10 10 9 8 7 6 6 6 5
22 20 17 17 17 15 14 14 13 15 16 16 16 16 15 16 16 17 16 16 16 16 16 15 15 19 20 18 17 18 16 12 10 10 10 9 8 8 6 6 5 5
22 21 19 20 19 18 18 18 15 14 14 14 13 14 14 14 15 16 15 16 16 16 16 15 15 20 22 20 18 18 16 12 9 9 10 9 9 8 7 6 5 5
28 28 27 26 24 24 26 24 18 15 14 13 12 12 12 12 13 14 15 16 16 16 16 14 16 21 23 21 18 18 17 13 10 10 10 9 9 9 8 6 6 5
33 34 31 30 29 30 30 27 21 17 15 14 13 11 11 11 12 13 14 15 16 16 16 14 15 22 25 22 20 19 17 13 10 10 10 10 10 10 8 7 6 6
34 35 34 33 32 33 32 29 26 24 22 20 17 13 11 11 11 11 13 14 15 16 16 13 15 22 26 23 21 21 18 13 11 11 11 10 10 10 9 8 8 8
34 35 35 34 34 34 31 28 27 27 25 23 19 14 11 11 10 11 12 13 14 15 16 14 15 21 26 24 21 22 19 14 11 11 11 11 11 11 9 8 8 8
36 36 35 35 33 32 31 30 30 29 26 23 19 13 11 10 10 10 11 12 13 14 16 14 14 20 26 24 22 22 21 16 11 11 12 12 11 11 10 9 9 8
Wind_Direction
180 178 173 169 164 160 162 164 158 154 155 155 150 145 144 142 139 136 134 131 127 123 122 121 122 122 118 115 112 108 105 101 99 98 97 94 91 90 88 85 85 83
177 178 177 174 172 170 171 168 157 150 153 152 146 144 145 143 142 140 137 134 129 126 126 126 127 126 121 118 114 110 108 106 104 103 100 97 94 91 89 87 86 85
178 185 184 179 175 171 170 166 155 150 151 148 147 147 147 146 145 144 140 137 134 131 131 131 131 128 123 121 117 113 113 111 109 108 102 98 96 93 91 89 87 87
183 189 184 177 174 171 169 166 157 153 152 150 152 152 150 149 148 146 143 141 138 137 137 136 133 130 126 124 121 119 117 113 111 109 105 100 97 94 92 91 90 88
185 186 179 175 175 172 169 164 157 155 154 154 156 155 154 152 150 149 147 145 144 143 142 139 135 132 132 129 126 123 119 115 113 111 107 103 99 97 95 93 91 87
183 182 178 177 176 173 169 162 158 157 156 157 158 157 156 155 153 153 152 150 150 149 146 142 139 138 138 135 130 126 122 118 116 113 108 105 102 100 97 93 89 84
181 180 180 178 174 173 169 161 159 159 158 159 159 159 158 157 157 157 156 155 154 152 148 145 145 145 143 139 133 127 124 121 118 114 109 107 106 102 98 93 88 84
180 178 180 178 174 174 170 162 161 160 160 161 160 160 161 160 160 159 159 159 157 154 151 150 150 148 145 142 137 131 127 124 120 116 112 110 109 105 101 95 89 84
177 176 180 178 175 175 170 163 160 161 163 163 161 161 162 163 162 161 162 162 158 156 155 154 152 149 147 144 140 136 131 127 122 118 115 115 113 109 104 99 92 85
177 176 178 177 176 175 168 163 162 162 164 164 162 162 163 164 163 164 165 162 160 161 159 156 153 150 149 147 144 140 134 129 124 120 119 118 115 112 107 101 94 88
179 177 177 178 178 174 168 165 164 163 165 165 164 163 163 164 165 167 167 165 165 166 161 157 155 153 153 151 147 143 136 131 126 123 121 119 116 114 109 102 96 89
180 177 178 180 178 174 169 167 164 164 167 167 166 166 165 166 168 169 169 170 170 168 162 158 156 157 158 155 151 146 139 134 130 127 124 122 120 117 111 104 97 90
182 179 180 180 177 174 170 167 166 167 168 167 168 169 168 169 171 170 172 174 172 168 163 159 159 161 162 159 155 150 144 140 137 133 129 126 123 119 114 107 98 91
183 181 181 180 175 172 169 167 167 169 169 169 170 171 172 173 172 171 173 175 173 169 164 161 163 166 166 163 160 155 150 147 144 140 136 131 128 125 119 111 103 93
180 178 178 177 173 169 167 166 167 170 170 170 172 174 174 174 173 174 175 175 173 169 165 164 167 170 171 169 165 160 155 152 150 147 143 139 136 133 128 120 110 99
175 173 173 172 171 169 167 167 169 170 171 172 174 175 175 175 175 177 177 176 174 170 167 169 172 176 177 174 169 164 160 156 155 153 150 148 144 140 138 133 124 116
170 172 171 170 171 169 168 170 171 171 172 174 175 175 175 176 177 179 180 180 176 172 172 173 177 185 185 178 171 166 161 159 159 158 157 156 154 150 147 142 137 133
171 174 172 172 171 170 171 171 170 172 174 175 176 176 176 177 180 182 182 181 178 176 178 179 184 193 188 181 175 169 161 161 163 163 164 164 162 160 154 148 146 143
177 175 171 172 171 169 168 168 170 174 176 176 177 177 178 181 184 185 184 182 179 179 182 184 191 196 187 179 179 173 164 162 167 168 170 171 169 167 160 153 154 150
169 165 161 163 159 150 152 160 172 179 179 177 177 179 182 185 187 187 186 184 180 181 184 186 195 197 188 180 181 178 170 166 169 172 174 175 174 173 168 159 156 153
158 159 159 156 150 152 167 175 183 189 184 178 178 181 185 188 190 189 188 186 184 185 186 187 197 198 189 183 182 181 178 176 174 176 178 180 181 178 174 167 161 156
169 171 168 164 165 176 183 182 180 183 180 175 177 181 186 190 192 192 190 188 187 188 187 189 198 198 191 187 186 183 184 186 183 182 184 184 184 183 179 174 168 162
178 177 174 175 181 186 184 179 176 176 176 176 176 177 184 190 192 193 191 189 189 191 190 189 196 198 193 191 191 187 187 191 190 187 189 188 186 188 183 177 177 174
181 181 180 182 187 187 183 180 179 180 184 189 188 185 187 188 190 192 192 193 193 194 194 191 193 196 195 194 194 191 191 194 195 190 190 189 188 189 186 181 183 181
183 185 185 187 188 186 182 180 180 182 187 193 194 192 189 186 190 193 194 197 197 195 195 194 191 195 197 196 195 195 195 198 200 194 191 191 189 188 187 183 183 182
186 187 187 188 188 186 184 185 185 184 186 190 191 187 179 179 190 197 197 198 197 195 196 194 191 195 198 198 197 198 198 200 204 201 195 193 191 189 187 185 183 183